Powrót do katalogu

COSMOS 2251 DEB

AktywnyLEO
NORAD 37292·DEBRIS·🇷🇺 Russia

Wystrzelony Jun 16, 1993 z Plesetsk Cosmodrome

Loading…

Następne Przeloty (najbliższe 24 godziny)

TLE

Starzejące sięSource: Space-Track

Epoka: Sep 10, 2026, 11:39 UTC

1 37292U 93036BJG 26253.48550666  .00001197  00000-0  62578-3 0  9991
2 37292  74.1256 298.4177 0208171 233.5374 124.6422 14.04925894636635

Śledź COSMOS 2251 DEB w czasie rzeczywistym z AllMySat

Download on the App Store